Weerstation Grootegast  Weerstation Grootegast


15 daagse weersverwachting Milton Keynes (GB)

  • Overzicht
  • Per uur
  • 15 dagen
  • Extra
  • Vergelijk
  • Kaarten
  • Dagkaart
  • Meer »
  • Info
  • Statistieken
  • Directe link
    Temp 6h Neerslag Wind  
 04:44     21:25    Daglengte: 16:41 Vandaag
01:00
12°
 
6
07:00
13°
 
6
13:00
18°
 
6
19:00
18°
 
4
 04:44     21:26    Daglengte: 16:42 Morgen
01:00
13°
 
3
07:00
12°
 
2
13:00
18°
 
2
19:00
19°
 
2
 04:44     21:26    Daglengte: 16:42 Woensdag 19 Jun
01:00
15°
3.5 mm
2
07:00
14°
20.4 mm
2
warningclass
13:00
16°
39.5 mm
4
19:00
16°
50.3 mm
4
Locatie info
Region: England
Latitude: 52.0436°N
Longitude: -0.7547°E
114 masl
Postcode: MK9 3
Temp/Neerslag /Baro Onweer/Dauwpunt
    Temp Baro 1h Neerslag Dauwpunt Wind UV Bewolking  
 04:44     21:25    Daglengte: 16:41 Vandaag
01:00
12°
1016.9 hPa
14%
10.5°
6
Windvlaag: 5.3 m/s
5%
02:00
12°
1016.8 hPa
14%
10.5°
6
Windvlaag: 5.1 m/s
5%
03:00
12°
1016.6 hPa
14%
10.4°
5
Windvlaag: 5 m/s
4%
04:00
12°
1016.5 hPa
14%
10.4°
5
Windvlaag: 4.9 m/s
8%
05:00
11°
1016.7 hPa
14%
10.4°
5
Windvlaag: 4.9 m/s
13%
06:00
12°
1017.0 hPa
14%
10.5°
5
Windvlaag: 4.6 m/s
32%
07:00
13°
1017.0 hPa
14%
10.8°
6
Windvlaag: 4.7 m/s
69%
08:00
14°
1017.1 hPa
15%
10.8°
6
Windvlaag: 4.7 m/s
68%
09:00
15°
1017.1 hPa
15%
10.6°
6
Windvlaag: 4.9 m/s
78%
10:00
16°
1016.9 hPa
14%
10.4°
6
Windvlaag: 5 m/s
71%
11:00
17°
1016.8 hPa
14%
10.7°
6
Windvlaag: 4.5 m/s
64%
12:00
17°
1016.8 hPa
14%
10.7°
6
Windvlaag: 4.4 m/s
72%
13:00
18°
1016.5 hPa
14%
11.1°
6
Windvlaag: 4.1 m/s
79%
14:00
19°
1016.2 hPa
14%
11.5°
6
Windvlaag: 4.3 m/s
47%
15:00
19°
1015.9 hPa
14%
11.7°
6
Windvlaag: 4.2 m/s
43%
16:00
19°
1015.7 hPa
14%
11.9°
5
Windvlaag: 4.1 m/s
49%
17:00
19°
1015.4 hPa
14%
12.0°
5
Windvlaag: 3.8 m/s
41%
18:00
19°
1015.3 hPa
14%
12.0°
5
Windvlaag: 3.5 m/s
21%
19:00
18°
1015.2 hPa
14%
11.8°
4
Windvlaag: 3.3 m/s
35%
20:00
17°
1015.3 hPa
14%
12.0°
4
Windvlaag: 3.2 m/s
31%
21:00
16°
1015.4 hPa
14%
12.1°
3
Windvlaag: 3.2 m/s
14%
22:00
15°
1015.9 hPa
16%
11.9°
3
Windvlaag: 3.1 m/s
20%
23:00
14°
1016.0 hPa
14%
11.5°
3
Windvlaag: 2.9 m/s
22%
 04:44     21:26    Daglengte: 16:42 Morgen
00:00
13°
1016.1 hPa
15%
11.2°
3
Windvlaag: 2.7 m/s
27%
01:00
13°
1016.0 hPa
15%
11.3°
3
Windvlaag: 2.9 m/s
51%
02:00
12°
1015.8 hPa
14%
11.1°
3
Windvlaag: 2.8 m/s
82%
03:00
12°
1015.6 hPa
14%
11.0°
3
Windvlaag: 2.7 m/s
82%
04:00
12°
1015.5 hPa
14%
10.7°
2
Windvlaag: 2.2 m/s
84%
05:00
12°
1015.4 hPa
14%
10.7°
2
Windvlaag: 2 m/s
70%
06:00
12°
1015.2 hPa
14%
10.7°
2
Windvlaag: 1.4 m/s
74%
07:00
12°
1015.2 hPa
17%
10.9°
2
Windvlaag: 0.9 m/s
85%
08:00
13°
1015.3 hPa
18%
11.2°
2
Windvlaag: 0.9 m/s
87%
09:00
15°
1015.1 hPa
14%
11.4°
2
Windvlaag: 1.7 m/s
87%
10:00
16°
1015.1 hPa
14%
11.2°
3
Windvlaag: 1.9 m/s
83%
11:00
16°
1014.8 hPa
14%
11.2°
2
Windvlaag: 1.6 m/s
84%
12:00
17°
1014.5 hPa
14%
11.4°
2
Windvlaag: 1.6 m/s
72%
13:00
18°
1014.1 hPa
14%
11.6°
2
Windvlaag: 1.2 m/s
61%
14:00
19°
1013.7 hPa
14%
12.7°
2
Windvlaag: 1.2 m/s
85%
15:00
19°
1013.3 hPa
14%
13.6°
2
Windvlaag: 2.2 m/s
88%
16:00
19°
1012.7 hPa
14%
14.0°
2
Windvlaag: 1.3 m/s
74%
17:00
20°
1012.2 hPa
15%
14.7°
2
Windvlaag: 1.9 m/s
76%
18:00
19°
1011.8 hPa
16%
15.5°
2
Windvlaag: 1.8 m/s
81%
19:00
19°
1011.5 hPa
31%
15.2°
2
Windvlaag: 1.5 m/s
87%
20:00
18°
1011.3 hPa
68%
15.3°
1
Windvlaag: 1.3 m/s
73%
21:00
17°
1011.1 hPa
21%
15.5°
2
Windvlaag: 1.1 m/s
87%
22:00
16°
1011.0 hPa
22%
15.0°
2
Windvlaag: 1.2 m/s
93%
23:00
15°
1010.8 hPa
37%
15.0°
2
Windvlaag: 1.5 m/s
97%
 04:44     21:26    Daglengte: 16:42 Woensdag 19 Jun
00:00
15°
1010.0 hPa
47%
14.7°
2
Windvlaag: 1.2 m/s
99%
01:00
15°
1009.4 hPa 3.5 mm
100%
14.3°
2
Windvlaag: 0.7 m/s
100%
02:00
14°
1008.8 hPa
100%
14.0°
2
Windvlaag: 0.3 m/s
97%
03:00
14°
1008.0 hPa 3.4 mm
100%
13.8°
2
Windvlaag: 0.2 m/s
97%
04:00
14°
1007.4 hPa 4.1 mm
100%
14.0°
2
Windvlaag: -0.4 m/s
95%
05:00
14°
1007.1 hPa 5.1 mm
100%
13.7°
3
Windvlaag: -1.1 m/s
98%
06:00
14°
1006.6 hPa 3.6 mm
100%
13.6°
3
Windvlaag: -1.5 m/s
97%
07:00
14°
1006.3 hPa 4.2 mm
100%
13.6°
2
Windvlaag: -1.9 m/s
100% warningclass
08:00
14°
1005.5 hPa 4.5 mm
100%
13.3°
2
Windvlaag: 1 m/s
98%
09:00
15°
1005.1 hPa 4.2 mm
97%
13.4°
3
Windvlaag: 1.2 m/s
100%
10:00
15°
1005.0 hPa 7.1 mm
22%
13.6°
3
Windvlaag: 0.5 m/s
100%
11:00
16°
1005.2 hPa 7.1 mm
22%
13.6°
3
Windvlaag: 0.2 m/s
97%
12:00
16°
1005.5 hPa 7.9 mm
21%
13.9°
3
Windvlaag: 1.4 m/s
100%
13:00
16°
1005.8 hPa 8.6 mm
27%
14.2°
4
Windvlaag: 2 m/s
95%
14:00
16°
1006.2 hPa 8.3 mm
95%
13.9°
3
Windvlaag: 1.9 m/s
96%
15:00
17°
1006.5 hPa 8.3 mm
92%
13.9°
4
Windvlaag: 1.5 m/s
90%
16:00
17°
1006.8 hPa 8.3 mm
31%
14.1°
4
Windvlaag: 1.2 m/s
79%
17:00
17°
1007.0 hPa 8.3 mm
22%
14.0°
4
Windvlaag: 1.1 m/s
82%
18:00
16°
1007.3 hPa 8.7 mm
21%
13.9°
4
Windvlaag: 1.3 m/s
63%
19:00
16°
1007.5 hPa 8.4 mm
21%
13.5°
4
Windvlaag: 1.2 m/s
86%
20:00
15°
1008.0 hPa
21%
13.3°
3
Windvlaag: 6.9 m/s
82%
21:00
15°
1008.5 hPa
21%
12.7°
3
Windvlaag: 4.7 m/s
74%
22:00
14°
1008.9 hPa
21%
12.7°
3
Windvlaag: 4.2 m/s
66%
23:00
14°
1009.2 hPa
62%
12.2°
3
Windvlaag: 6.4 m/s
54%
 04:44     21:26    Daglengte: 16:42 Donderdag 20 Jun
00:00
13°
1009.6 hPa
22%
11.6°
3
Windvlaag: 7.3 m/s
35%
Temp/Neerslag /Baro Onweer/Dauwpunt
    Temp Baro Neerslag Dauwpunt Wind Bewolking  
 04:44     21:25    Daglengte: 16:41 Vandaag
01:00
12°
1016.9 hPa   10.5°
6
5%
04:00
12°
1016.5 hPa   10.4°
5
8%
07:00
13°
1017.0 hPa   10.8°
6
69%
10:00
16°
1016.9 hPa   10.4°
6
71%
13:00
18°
1016.5 hPa   11.1°
6
79%
16:00
19°
1015.7 hPa   11.9°
5
49%
19:00
18°
1015.2 hPa   11.8°
4
35%
22:00
15°
1015.9 hPa   11.9°
3
20%
 04:44     21:26    Daglengte: 16:42 Morgen
01:00
13°
1016.0 hPa   11.3°
3
51%
04:00
12°
1015.5 hPa   10.7°
2
84%
07:00
12°
1015.2 hPa   10.9°
2
85%
10:00
16°
1015.1 hPa   11.2°
3
83%
13:00
18°
1014.1 hPa   11.6°
2
61%
16:00
19°
1012.7 hPa   14.0°
2
74%
19:00
19°
1011.5 hPa   15.2°
2
87%
22:00
16°
1011.0 hPa   15.0°
2
93%
 04:44     21:26    Daglengte: 16:42 Woensdag 19 Jun
01:00
15°
1009.4 hPa 3.5 mm 14.3°
2
100%
04:00
14°
1007.4 hPa 7.6 mm 14.0°
2
95%
07:00
14°
1006.3 hPa 12.9 mm 13.6°
2
100% warningclass
10:00
15°
1005.0 hPa 15.8 mm 13.6°
3
100%
13:00
16°
1005.8 hPa 23.7 mm 14.2°
4
95%
16:00
17°
1006.8 hPa 25.0 mm 14.1°
4
79%
19:00
16°
1007.5 hPa 25.4 mm 13.5°
4
86%
22:00
14°
1008.9 hPa   12.7°
3
66%
 04:44     21:26    Daglengte: 16:42 Donderdag 20 Jun
01:00
12°
1009.9 hPa   11.1°
3
33%
04:00
11°
1011.2 hPa 17.2 mm 9.6°
4
13%
07:00
11°
1011.7 hPa 17.2 mm 9.2°
4
6%
10:00
13°
1012.2 hPa 17.4 mm 9.4°
5
29%
13:00
16°
1012.7 hPa 18.2 mm 8.9°
5
52%
16:00
16°
1013.0 hPa 19.2 mm 9.0°
5
55%
19:00
15°
1013.3 hPa 19.9 mm 9.1°
5
59%
22:00
12°
1014.6 hPa 20.0 mm 9.0°
4
34%
 04:44     21:27    Daglengte: 16:43 Vrijdag 21 Jun
01:00
10°
Voelt als: 8.1°
1015.9 hPa 20.0 mm 8.6°
3
8%
04:00
10°
Voelt als: 8.1°
1016.7 hPa 20.0 mm 8.2°
3
5%
07:00
10°
Voelt als: 8.4°
1017.5 hPa 20.0 mm 8.1°
3
3%
10:00
13°
1018.0 hPa 20.2 mm 8.0°
4
34%
13:00
16°
1018.4 hPa 21.1 mm 6.8°
4
65%
16:00
16°
1018.6 hPa 21.8 mm 7.2°
3
65%
19:00
16°
1018.8 hPa 22.2 mm 7.6°
3
64%
22:00
13°
1019.8 hPa 22.3 mm 7.9°
2
47%
 04:44     21:27    Daglengte: 16:43 Zaterdag 22 Jun
01:00
10°
Voelt als: 8.9°
1020.6 hPa 22.3 mm 7.6°
2
30%
04:00
10°
1020.9 hPa 22.3 mm 7.6°
2
43%
07:00
11°
1021.2 hPa 22.3 mm 7.8°
3
55%
10:00
14°
1020.8 hPa 22.3 mm 8.3°
3
73%
13:00
17°
1020.5 hPa 23.0 mm 7.9°
3
92%
16:00
17°
1019.8 hPa 25.1 mm 9.2°
3
79%
19:00
17°
1019.2 hPa 25.8 mm 10.2°
3
66%
22:00
14°
1019.7 hPa 26.1 mm 9.5°
3
42%
 04:45     21:27    Daglengte: 16:42 Zondag 23 Jun
01:00
11°
1020.1 hPa 26.1 mm 8.4°
3
17%
04:00
12°
1019.3 hPa 26.1 mm 9.3°
3
55%
07:00
12°
1018.6 hPa 26.1 mm 10.3°
3
92%
10:00
15°
1017.8 hPa 26.1 mm 11.5°
4
92%
13:00
18°
1017.1 hPa 27.0 mm 12.2°
5
92%
16:00
17°
1016.5 hPa 28.4 mm 12.5°
5
85%
19:00
16°
1016.1 hPa 29.0 mm 12.7°
4
78%
22:00
15°
1016.3 hPa   12.6°
3
62%
 04:45     21:27    Daglengte: 16:42 Maandag 24 Jun
01:00
13°
1016.4 hPa 58.0 mm 12.5°
3
46%
07:00
13°
1015.9 hPa 58.5 mm 12.8°
3
92%
13:00
18°
1016.1 hPa 73.6 mm 15.0°
3
38%
19:00
15°
1016.6 hPa 92.2 mm 13.6°
5
82%
 04:46     21:27    Daglengte: 16:41 Dinsdag 25 Jun
01:00
12°
1018.2 hPa 101.3 mm 11.3°
5
92%
07:00
11°
1019.5 hPa 112.8 mm 9.8°
5
92%
13:00
14°
1021.5 hPa 133.6 mm 9.0°
6
92%
19:00
13°
1022.5 hPa 150.8 mm 8.2°
6
87%
 04:46     21:27    Daglengte: 16:41 Woensdag 26 Jun
01:00
10°
1024.5 hPa 153.1 mm 7.5°
5
45%
07:00
11°
1024.4 hPa 153.1 mm 7.9°
5
89%
13:00
14°
1025.0 hPa 153.2 mm 8.5°
6
92%
19:00
18°
1021.2 hPa 1.2 mm 12.8°
1
44%
 04:47     21:27    Daglengte: 16:40 Donderdag 27 Jun
01:00
12°
1020.8 hPa 0.6 mm 9.8°
0
44%
07:00
12°
1018.9 hPa 0.7 mm 10.4°
1
51%
13:00
18°
1017.8 hPa 0.7 mm 12.7°
2
54%
19:00
18°
1016.1 hPa 1.0 mm 13.4°
2
51%
 04:47     21:27    Daglengte: 16:40 Vrijdag 28 Jun
01:00
12°
1016.1 hPa 0.7 mm 10.0°
1
43%
07:00
12°
1015.1 hPa 0.8 mm 10.7°
2
40%
13:00
18°
1015.1 hPa 0.5 mm 12.7°
3
49%
19:00
18°
1014.7 hPa 0.7 mm 13.1°
3
63%
 04:48     21:27    Daglengte: 16:39 Zaterdag 29 Jun
01:00
12°
1015.7 hPa 0.3 mm 10.0°
2
38%
07:00
12°
1015.6 hPa 0.2 mm 9.8°
2
27%
13:00
18°
1015.4 hPa 0.4 mm 11.7°
2
44%
19:00
18°
1014.6 hPa 0.6 mm 13.0°
3
50%
 04:48     21:26    Daglengte: 16:38 Zondag 30 Jun
01:00
12°
1015.3 hPa 0.3 mm 9.8°
2
33%
07:00
12°
1015.1 hPa 0.2 mm 9.9°
2
31%
13:00
18°
1015.1 hPa 0.3 mm 11.7°
3
45%
19:00
17°
1014.6 hPa 0.7 mm 12.4°
3
49%
 04:49     21:26    Daglengte: 16:37 Maandag 01 Jul
01:00
11°
1015.3 hPa 0.4 mm 9.5°
1
33%
07:00
12°
1015.3 hPa 0.1 mm 10.2°
2
29%
13:00
18°
1015.3 hPa 0.5 mm 11.7°
3
42%
19:00
18°
1014.7 hPa 0.7 mm 12.4°
3
50%
  CAPE Lifted Index Hail Supercell Tornado SRH 3km CL BTM PRES CL TOP PRES Swiss DWD icon SMHI TS
 04:44     21:25    Daglengte: 16:41 Vandaag
01:00 0 J/kg 5.8 K 0 % 0 % 0 % 0 m²/s² 0 0 7.84 1
02:00 0 J/kg 5.8 K 0 % 0 % 0 % 0 m²/s² 0 0 8.17 0
03:00 0 J/kg 5.6 K 0 % 0 % 0 % 0 m²/s² 0 0 8.12 0
04:00 0 J/kg 5.6 K 0 % 0 % 0 % 0 m²/s² 0 0 8.42 1
05:00 0 J/kg 5.8 K 0 % 0 % 0 % 0 m²/s² 0 0 8.62 1
06:00 0 J/kg 6.3 K 0 % 0 % 0 % 0 m²/s² 0 0 8.97 1
07:00 2 J/kg 6.4 K 0 % 0 % 0 % 0 m²/s² 0 0 9.4 2
08:00 12 J/kg 5.7 K 0 % 0 % 0 % 0 m²/s² 0 0 8.94 3
09:00 17 J/kg 5.1 K 0 % 0 % 0 % 0 m²/s² 0 0 8.7 3
10:00 15 J/kg 4.6 K 0 % 0 % 0 % 0 m²/s² 0 0 8.5 3
11:00 20 J/kg 3.6 K 0 % 0 % 0 % 0 m²/s² 0 0 7.2 2
12:00 22 J/kg 3.1 K 0 % 0 % 0 % 0 m²/s² 0 0 7.09 3
13:00 23 J/kg 2.2 K 0 % 0 % 0 % 0 m²/s² 0 0 5.89 3
14:00 21 J/kg 2.2 K 0 % 0 % 0 % 0 m²/s² 0 0 6.19 3
15:00 23 J/kg 1.9 K 0 % 0 % 0 % 0 m²/s² 0 0 5.92 2
16:00 34 J/kg 1.6 K 0 % 0 % 0 % 0 m²/s² 0 0 5.41 3
17:00 33 J/kg 1.5 K 0 % 0 % 0 % 0 m²/s² 0 0 5.4 2
18:00 29 J/kg 1.5 K 0 % 0 % 0 % 0 m²/s² 0 0 5.52 2
19:00 25 J/kg 1.5 K 0 % 0 % 0 % 0 m²/s² 0 0 5.22 3
20:00 0 J/kg 2.1 K 0 % 0 % 0 % 0 m²/s² 0 0 5.82 3
21:00 0 J/kg 2.7 K 0 % 0 % 0 % 0 m²/s² 0 0 6.42 3
22:00 0 J/kg 2.9 K 0 % 0 % 0 % 0 m²/s² 0 0 6.44 3
23:00 0 J/kg 2.6 K 0 % 0 % 0 % 0 m²/s² 0 0 6.11 3
 04:44     21:26    Daglengte: 16:42 Morgen
00:00 0 J/kg 2.8 K 0 % 0 % 0 % 0 m²/s² 0 0 6.43 3
01:00 0 J/kg 3.4 K 0 % 0 % 0 % 0 m²/s² 0 0 7 3
02:00 0 J/kg 3.4 K 0 % 0 % 0 % 0 m²/s² 0 0 6.94 3
03:00 0 J/kg 3.2 K 0 % 0 % 0 % 0 m²/s² 0 0 6.38 3
04:00 0 J/kg 3.7 K 0 % 0 % 0 % 0 m²/s² 0 0 6.46 3
05:00 0 J/kg 4.0 K 0 % 0 % 0 % 0 m²/s² 0 0 6.67 3
06:00 0 J/kg 4.3 K 0 % 0 % 0 % 0 m²/s² 0 0 6.67 3
07:00 0 J/kg 4.0 K 0 % 0 % 0 % 0 m²/s² 0 0 6.16 3
08:00 0 J/kg 3.3 K 0 % 0 % 0 % 0 m²/s² 0 0 4.98 3
09:00 0 J/kg 2.4 K 0 % 0 % 0 % 0 m²/s² 0 0 3.84 3
10:00 0 J/kg 1.5 K 0 % 0 % 0 % 0 m²/s² 0 0 2.07 3
11:00 0 J/kg 2.4 K 0 % 0 % 0 % 0 m²/s² 0 0 2.49 3
12:00 0 J/kg 2.4 K 0 % 0 % 0 % 0 m²/s² 0 0 2.7 3
13:00 0 J/kg 2.0 K 0 % 0 % 0 % 0 m²/s² 0 0 2.09 2
14:00 8 J/kg 1.4 K 0 % 0 % 0 % 0 m²/s² 0 0 1.7 3
15:00 25 J/kg 1.4 K 0 % 0 % 0 % 0 m²/s² 0 0 1.4 3
16:00 0 J/kg 0.2 K 0 % 0 % 0 % 0 m²/s² 0 0 0.38 3
17:00 25 J/kg 0.1 K 0 % 0 % 0 % 0 m²/s² 0 0 0.43 3
18:00 177 J/kg -0.2 K 0 % 0 % 0 % 0 m²/s² 0 0 0.88 3
19:00 475 J/kg -1.3 K 0 % 0 % 0 % 0 m²/s² 0 0 -0.82 3
20:00 581 J/kg -2.0 K 0 % 0 % 0 % 0 m²/s² 0 0 -1.82 3
21:00 333 J/kg -1.6 K 0 % 0 % 0 % 0 m²/s² 0 0 -0.67 3
22:00 61 J/kg -1.1 K 0 % 0 % 0 % 0 m²/s² 0 0 -0.2 3
23:00 2 J/kg -0.1 K 0 % 0 % 0 % 0 m²/s² 0 0 -0.01 3
 04:44     21:26    Daglengte: 16:42 Woensdag 19 Jun
00:00 0 J/kg 0.6 K 0 % 0 % 0 % 0 m²/s² 0 0 0.78 3
01:00 0 J/kg 0.4 K 0 % 0 % 0 % 0 m²/s² 0 0 0.79 80
02:00 0 J/kg 0.4 K 0 % 0 % 0 % 0 m²/s² 0 0 0.52 61
03:00 0 J/kg -1.1 K 0 % 0 % 0 % 0 m²/s² 0 0 -0.35 61
04:00 1 J/kg -1.7 K 0 % 0 % 0 % 0 m²/s² 0 0 0.94 61
05:00 1 J/kg -1.5 K 0 % 0 % 0 % 0 m²/s² 0 0 0.69 61
06:00 2 J/kg -1.4 K 0 % 0 % 0 % 0 m²/s² 0 0 -0.2 61
07:00 0 J/kg -0.3 K 0 % 0 % 0 % 0 m²/s² 0 0 0.18 95
08:00 1 J/kg -1.0 K 0 % 0 % 0 % 0 m²/s² 0 0 -0.7 80
09:00 5 J/kg -1.0 K 0 % 0 % 0 % 0 m²/s² 0 0 -0.31 3
10:00 6 J/kg -1.0 K 0 % 0 % 0 % 0 m²/s² 0 0 -0.25 3
11:00 102 J/kg -0.7 K 0 % 0 % 0 % 0 m²/s² 0 0 -0.22 3
12:00 14 J/kg 0.5 K 0 % 0 % 0 % 0 m²/s² 0 0 0.68 3
13:00 8 J/kg 2.4 K 0 % 0 % 0 % 0 m²/s² 0 0 2.82 3
14:00 0 J/kg 3.9 K 0 % 0 % 0 % 0 m²/s² 0 0 4.8 3
15:00 66 J/kg 3.0 K 0 % 0 % 0 % 0 m²/s² 0 0 4.02 3
16:00 84 J/kg 2.6 K 0 % 0 % 0 % 0 m²/s² 0 0 3.62 3
17:00 104 J/kg 2.4 K 0 % 0 % 0 % 0 m²/s² 0 0 3.36 3
18:00 41 J/kg 3.3 K 0 % 0 % 0 % 0 m²/s² 0 0 4.68 3
19:00 15 J/kg 3.5 K 0 % 0 % 0 % 0 m²/s² 0 0 5.66 3
20:00 59 J/kg 3.1 K 0 % 0 % 0 % 0 m²/s² 0 0 6.49 3
21:00 122 J/kg 2.5 K 0 % 0 % 0 % 0 m²/s² 0 0 6.07 3
22:00 94 J/kg 2.6 K 0 % 0 % 0 % 0 m²/s² 0 0 8.81 3
23:00 103 J/kg 2.6 K 0 % 0 % 0 % 0 m²/s² 0 0 9.62 3
 04:44     21:26    Daglengte: 16:42 Donderdag 20 Jun
00:00 7 J/kg 4.9 K 0 % 0 % 0 % 0 m²/s² 0 0 11.5 2
Temp Baro Wind Neerslag
  EWN Forecast EWN WRFDA DWD ICON FMI HIRLAM MET Norway GFS
 04:44     21:25    Daglengte: 16:41 Vandaag
01:00 12.4° 1016.9 hPa 5.6 m/s 0.0 mm 10.6° 1016.8 hPa 5.1 m/s 0.1 mm 12.4° 1017.4 hPa 4.9 m/s -2.0 mm 13.5° 1016.0 hPa 5.9 m/s 0.0 mm 12.1° 1016.9 hPa 5.5 m/s 0.0 mm 10.1° 1017.4 hPa 5.6 m/s
04:00 11.6° 1016.5 hPa 5.1 m/s 0.0 mm 9.9° 1016.3 hPa 5.2 m/s 0.2 mm 11.7° 1016.8 hPa 4.7 m/s 0.0 mm 12.9° 1015.7 hPa 5.2 m/s 0.0 mm 11.2° 1016.5 hPa 5.0 m/s 0.0 mm 9.3° 1016.8 hPa 5.0 m/s
07:00 13.0° 1017.0 hPa 6.0 m/s 0.0 mm 12.1° 1016.3 hPa 6.0 m/s 0.2 mm 13.3° 1017.3 hPa 5.3 m/s 0.0 mm 13.8° 1016.3 hPa 5.9 m/s 0.0 mm 13.1° 1017.0 hPa 6.7 m/s 0.0 mm 11.5° 1017.1 hPa 6.4 m/s
10:00 16.0° 1016.9 hPa 6.3 m/s 0.0 mm 15.7° 1016.4 hPa 6.3 m/s 0.2 mm 15.5° 1017.9 hPa 5.5 m/s 0.0 mm 18.0° 1016.0 hPa 6.8 m/s 0.0 mm 15.9° 1016.8 hPa 6.4 m/s 0.0 mm 14.9° 1017.5 hPa 6.8 m/s
13:00 17.9° 1016.5 hPa 5.8 m/s 0.0 mm 18.2° 1015.7 hPa 5.4 m/s 0.2 mm 17.3° 1016.9 hPa 5.3 m/s 0.0 mm 19.3° 1015.7 hPa 6.2 m/s 0.0 mm 17.6° 1016.5 hPa 5.9 m/s 0.0 mm 16.1° 1017.1 hPa 6.5 m/s
16:00 19.1° 1015.7 hPa 5.4 m/s 0.0 mm 19.4° 1014.6 hPa 6.3 m/s 0.2 mm 18.9° 1016.2 hPa 4.8 m/s 0.0 mm 19.3° 1015.2 hPa 5.3 m/s 0.0 mm 18.5° 1015.7 hPa 5.6 m/s 0.0 mm 16.2° 1016.4 hPa 6.1 m/s
19:00 18.2° 1015.2 hPa 4.4 m/s 0.0 mm 18.1° 1014.6 hPa 5.9 m/s 0.2 mm 18.2° 1015.7 hPa 4.1 m/s 0.0 mm 18.8° 1014.9 hPa 3.5 m/s 0.0 mm 17.6° 1015.2 hPa 4.3 m/s 0.0 mm 15.9° 1016.0 hPa 5.4 m/s
22:00 15.2° 1015.9 hPa 3.4 m/s 0.0 mm 14.4° 1015.3 hPa 3.9 m/s 0.2 mm 15.4° 1016.3 hPa 2.5 m/s 0.0 mm 17.4° 1015.5 hPa 1.6 m/s 0.0 mm 13.9° 1015.9 hPa 3.6 m/s 0.0 mm 11.7° 1016.8 hPa 4.1 m/s
 04:44     21:26    Daglengte: 16:42 Morgen
01:00 13.0° 1016.0 hPa 3.0 m/s 0.0 mm 11.7° 1015.4 hPa 3.7 m/s 0.2 mm 13.3° 1016.1 hPa 2.5 m/s 0.0 mm 15.8° 1015.6 hPa 3.0 m/s 0.0 mm 11.4° 1016.1 hPa 2.7 m/s 0.0 mm 10.0° 1016.9 hPa 3.6 m/s
04:00 11.7° 1015.5 hPa 2.4 m/s 0.0 mm 10.1° 1014.2 hPa 2.1 m/s 0.2 mm 11.8° 1015.7 hPa 2.3 m/s 0.0 mm 14.9° 1015.6 hPa 2.2 m/s 0.0 mm 10.3° 1015.6 hPa 2.4 m/s 0.0 mm 9.1° 1016.0 hPa 3.1 m/s
07:00 12.5° 1015.2 hPa 1.9 m/s 0.0 mm 12.6° 1014.6 hPa 0.7 m/s 0.2 mm 12.8° 1015.2 hPa 2.0 m/s 0.0 mm 14.9° 1015.6 hPa 1.5 m/s 0.0 mm 11.9° 1015.3 hPa 2.0 m/s 0.0 mm 11.2° 1015.9 hPa 2.4 m/s
10:00 15.8° 1015.1 hPa 2.5 m/s 0.0 mm 16.1° 1014.6 hPa 3.0 m/s 0.2 mm 17.0° 1015.0 hPa 2.7 m/s 0.0 mm 18.6° 1015.2 hPa 3.1 m/s 0.0 mm 15.3° 1015.0 hPa 2.3 m/s 0.0 mm 16.0° 1015.4 hPa 2.4 m/s
13:00 17.9° 1014.1 hPa 1.8 m/s 0.0 mm 16.2° 1013.0 hPa 0.8 m/s 5.4 mm 19.8° 1013.7 hPa 2.5 m/s 0.0 mm 20.2° 1014.4 hPa 1.8 m/s 0.0 mm 17.5° 1014.1 hPa 1.9 m/s 0.0 mm 18.4° 1014.1 hPa 2.4 m/s
16:00 19.3° 1012.7 hPa 2.0 m/s 0.0 mm 15.8° 1011.6 hPa 2.6 m/s 11.8 mm 21.1° 1012.3 hPa 2.5 m/s 0.0 mm 22.2° 1013.1 hPa 3.4 m/s 0.0 mm 17.1° 1012.9 hPa 1.1 m/s 0.7 mm 17.9° 1012.4 hPa 1.3 m/s
19:00 19.2° 1011.5 hPa 1.5 m/s 0.0 mm 18.6° 1009.8 hPa 2.4 m/s 17.9 mm 20.5° 1011.4 hPa 0.9 m/s 0.0 mm 22.0° 1012.3 hPa 2.8 m/s 0.0 mm 16.4° 1011.7 hPa 1.4 m/s 0.4 mm 15.3° 1011.2 hPa 2.6 m/s
22:00 15.7° 1011.0 hPa 1.8 m/s 0.0 mm 15.6° 1009.1 hPa 3.2 m/s 18.6 mm 17.6° 1010.0 hPa 2.3 m/s 0.0 mm 14.4° 1011.2 hPa 1.6 m/s 0.0 mm 13.5° 1011.0 hPa 1.7 m/s
 04:44     21:26    Daglengte: 16:42 Woensdag 19 Jun
01:00 14.7° 1009.4 hPa 2.3 m/s 3.5 mm 15.1° 1005.6 hPa 4.8 m/s 38.7 mm 14.9° 1008.8 hPa 3.5 m/s 0.7 mm 13.5° 1009.8 hPa 1.9 m/s 0.0 mm 12.4° 1009.2 hPa 2.3 m/s
04:00 14.2° 1007.4 hPa 2.5 m/s 7.6 mm 14.5° 1004.4 hPa 3.1 m/s 59.1 mm 14.3° 1006.3 hPa 3.1 m/s 2.6 mm 13.6° 1007.7 hPa 2.4 m/s 0.3 mm 12.6° 1006.6 hPa 3.3 m/s
07:00 14.0° 1006.3 hPa 2.5 m/s 12.9 mm 14.6° 1003.0 hPa 2.2 m/s 60.5 mm 14.1° 1004.3 hPa 3.1 m/s 6.8 mm 13.3° 1007.4 hPa 1.7 m/s 0.6 mm 13.3° 1005.0 hPa 4.6 m/s
10:00 15.3° 1005.0 hPa 2.7 m/s 15.8 mm 15.9° 1001.7 hPa 2.1 m/s 62.0 mm 15.7° 1003.4 hPa 3.9 m/s 1.0 mm 14.9° 1006.9 hPa 2.6 m/s 0.5 mm 13.7° 1004.7 hPa 3.5 m/s
13:00 16.2° 1005.8 hPa 3.8 m/s 23.7 mm 14.3° 1003.5 hPa 7.9 m/s 68.3 mm 16.5° 1004.1 hPa 5.4 m/s 0.0 mm 16.4° 1007.6 hPa 1.6 m/s 1.5 mm 14.2° 1004.8 hPa 2.9 m/s
16:00 17.1° 1006.8 hPa 3.6 m/s 25.0 mm 16.7° 1005.6 hPa 6.0 m/s 73.2 mm 16.7° 1005.8 hPa 5.1 m/s 0.0 mm 17.5° 1007.8 hPa 1.9 m/s 0.7 mm 13.8° 1005.9 hPa 4.9 m/s
19:00 16.0° 1007.5 hPa 3.5 m/s 25.4 mm 17.2° 1006.7 hPa 5.0 m/s 73.4 mm 16.4° 1006.8 hPa 4.0 m/s 0.0 mm 15.4° 1008.2 hPa 2.8 m/s 1.4 mm 12.8° 1007.6 hPa 4.2 m/s
22:00 14.3° 1008.9 hPa 2.7 m/s 0.0 mm 14.5° 1007.9 hPa 2.2 m/s 73.5 mm 14.7° 1008.6 hPa 2.3 m/s 0.0 mm 14.0° 1009.2 hPa 3.2 m/s 10.8° 1009.8 hPa 3.0 m/s
 04:44     21:26    Daglengte: 16:42 Donderdag 20 Jun
01:00 12.5° 1009.9 hPa 3.5 m/s 0.0 mm 10.1° 1008.4 hPa 3.5 m/s 73.9 mm 13.3° 1009.7 hPa 3.0 m/s 0.0 mm 12.6° 1010.3 hPa 3.6 m/s 9.1° 1010.1 hPa 3.3 m/s
04:00 11.0° 1011.2 hPa 3.7 m/s 17.2 mm 11.3° 1011.2 hPa 3.7 m/s 7.7° 1010.9 hPa 3.6 m/s 17.2 mm
07:00 10.6° 1011.7 hPa 3.7 m/s 17.2 mm 10.7° 1011.7 hPa 3.7 m/s 9.8° 1011.5 hPa 4.2 m/s 17.2 mm
10:00 13.5° 1012.2 hPa 4.6 m/s 17.4 mm 13.4° 1012.2 hPa 4.6 m/s 14.0° 1012.2 hPa 4.3 m/s 17.4 mm
13:00 16.1° 1012.7 hPa 5.4 m/s 18.2 mm 16.2° 1012.7 hPa 5.5 m/s 14.9° 1012.2 hPa 4.9 m/s 18.2 mm
16:00 15.7° 1013.0 hPa 5.3 m/s 19.2 mm 15.8° 1013.0 hPa 5.2 m/s 15.6° 1012.2 hPa 6.4 m/s 19.2 mm
19:00 15.2° 1013.3 hPa 4.7 m/s 19.9 mm 15.3° 1013.4 hPa 4.8 m/s 14.0° 1012.3 hPa 4.1 m/s 19.9 mm
22:00 12.3° 1014.6 hPa 3.8 m/s 20.0 mm 12.5° 1014.8 hPa 3.8 m/s 10.1° 1013.3 hPa 3.8 m/s 20.0 mm
 04:44     21:27    Daglengte: 16:43 Vrijdag 21 Jun
01:00 9.6° 1015.9 hPa 2.8 m/s 20.0 mm 9.7° 1016.1 hPa 2.7 m/s 8.5° 1013.7 hPa 4.1 m/s 20.0 mm
04:00 9.6° 1016.7 hPa 2.8 m/s 20.0 mm 9.8° 1016.9 hPa 2.8 m/s 7.3° 1014.1 hPa 3.9 m/s 20.0 mm
07:00 9.9° 1017.5 hPa 3.0 m/s 20.0 mm 9.9° 1017.7 hPa 2.8 m/s 9.6° 1014.8 hPa 5.3 m/s 20.0 mm
10:00 13.0° 1018.0 hPa 3.5 m/s 20.2 mm 12.9° 1018.2 hPa 3.4 m/s 13.8° 1015.9 hPa 4.9 m/s 20.2 mm
13:00 16.0° 1018.4 hPa 4.1 m/s 21.1 mm 16.0° 1018.6 hPa 4.0 m/s 15.6° 1015.9 hPa 4.6 m/s 21.1 mm
16:00 15.9° 1018.6 hPa 3.3 m/s 21.8 mm 15.8° 1018.8 hPa 3.2 m/s 16.0° 1016.3 hPa 3.9 m/s 21.8 mm
19:00 15.6° 1018.8 hPa 2.5 m/s 22.2 mm 15.7° 1019.0 hPa 2.5 m/s 14.6° 1016.7 hPa 2.7 m/s 22.2 mm
22:00 12.7° 1019.8 hPa 2.3 m/s 22.3 mm 12.8° 1019.9 hPa 2.4 m/s 10.5° 1018.2 hPa 1.5 m/s 22.3 mm
 04:44     21:27    Daglengte: 16:43 Zaterdag 22 Jun
01:00 9.9° 1020.6 hPa 2.2 m/s 22.3 mm 10.0° 1020.8 hPa 2.3 m/s 8.4° 1018.7 hPa 0.8 m/s 22.3 mm
04:00 10.1° 1020.9 hPa 2.4 m/s 22.3 mm 10.4° 1021.1 hPa 2.5 m/s 7.3° 1018.4 hPa 2.1 m/s 22.3 mm
07:00 10.7° 1021.2 hPa 2.6 m/s 22.3 mm 10.8° 1021.4 hPa 2.6 m/s 9.7° 1018.8 hPa 2.5 m/s 22.3 mm
10:00 14.2° 1020.8 hPa 2.7 m/s 22.3 mm 14.1° 1021.0 hPa 2.7 m/s 14.7° 1018.4 hPa 3.8 m/s 22.3 mm
13:00 17.4° 1020.5 hPa 2.8 m/s 23.0 mm 17.4° 1020.7 hPa 2.7 m/s 17.1° 1018.1 hPa 4.0 m/s 23.0 mm
16:00 17.2° 1019.8 hPa 3.1 m/s 25.1 mm 17.3° 1020.1 hPa 2.9 m/s 16.5° 1016.8 hPa 5.2 m/s 25.1 mm
19:00 16.9° 1019.2 hPa 3.3 m/s 25.8 mm 17.2° 1019.5 hPa 3.1 m/s 13.8° 1016.4 hPa 5.2 m/s 25.8 mm
22:00 14.2° 1019.7 hPa 3.1 m/s 26.1 mm 14.4° 1019.9 hPa 3.1 m/s 12.3° 1017.5 hPa 3.6 m/s 26.1 mm
 04:45     21:27    Daglengte: 16:42 Zondag 23 Jun
01:00 11.4° 1020.1 hPa 3.1 m/s 26.1 mm 11.6° 1020.3 hPa 3.1 m/s 9.6° 1017.4 hPa 2.7 m/s 26.1 mm
04:00 11.5° 1019.3 hPa 3.2 m/s 26.1 mm 11.8° 1019.5 hPa 3.2 m/s 8.8° 1016.8 hPa 3.1 m/s 26.1 mm
07:00 11.8° 1018.6 hPa 3.5 m/s 26.1 mm 11.9° 1018.7 hPa 3.4 m/s 11.0° 1017.5 hPa 4.3 m/s 26.1 mm
10:00 14.8° 1017.8 hPa 4.4 m/s 26.1 mm 14.8° 1017.9 hPa 4.3 m/s 15.7° 1017.6 hPa 4.9 m/s 26.1 mm
13:00 17.6° 1017.1 hPa 5.3 m/s 27.0 mm 17.6° 1017.0 hPa 5.3 m/s 18.0° 1017.7 hPa 4.9 m/s 27.0 mm
16:00 17.0° 1016.5 hPa 4.6 m/s 28.4 mm 17.0° 1016.5 hPa 4.5 m/s 17.8° 1016.9 hPa 5.9 m/s 28.4 mm
19:00 16.3° 1016.1 hPa 3.8 m/s 29.0 mm 16.3° 1016.0 hPa 3.6 m/s 16.1° 1017.1 hPa 6.1 m/s 29.0 mm
22:00 14.5° 1016.3 hPa 3.1 m/s 29.0 mm 14.8° 1016.1 hPa 2.9 m/s 12.3° 1018.0 hPa 5.3 m/s 29.0 mm
 04:45     21:27    Daglengte: 16:42 Maandag 24 Jun
01:00 13.0° 1016.4 hPa 2.6 m/s 29.0 mm 13.2° 1016.3 hPa 2.2 m/s 11.2° 1017.6 hPa 6.7 m/s 29.0 mm
07:00 13.0° 1015.9 hPa 3.0 m/s 29.5 mm 13.2° 1015.9 hPa 2.5 m/s 11.2° 1016.3 hPa 8.4 m/s 29.5 mm
13:00 17.7° 1016.1 hPa 3.2 m/s 39.9 mm 18.2° 1016.2 hPa 2.7 m/s 11.8° 1015.6 hPa 8.4 m/s 39.9 mm
19:00 15.1° 1016.6 hPa 5.1 m/s 48.6 mm 15.4° 1016.8 hPa 4.7 m/s 11.3° 1014.3 hPa 9.9 m/s 48.6 mm
 04:46     21:27    Daglengte: 16:41 Dinsdag 25 Jun
01:00 12.3° 1018.2 hPa 5.1 m/s 51.9 mm 12.6° 1018.6 hPa 4.6 m/s 9.3° 1013.7 hPa 10.9 m/s 51.9 mm
07:00 11.4° 1019.5 hPa 4.8 m/s 57.5 mm 11.6° 1020.2 hPa 4.3 m/s 9.0° 1012.4 hPa 10.9 m/s 57.5 mm
13:00 13.6° 1021.5 hPa 6.3 m/s 72.5 mm 14.1° 1022.3 hPa 6.0 m/s 8.4° 1012.3 hPa 9.4 m/s 72.5 mm
19:00 13.5° 1022.5 hPa 5.6 m/s 76.4 mm 13.9° 1023.4 hPa 5.4 m/s 8.8° 1013.0 hPa 7.2 m/s 76.4 mm
 04:46     21:27    Daglengte: 16:41 Woensdag 26 Jun
01:00 10.1° 1024.5 hPa 4.7 m/s 76.5 mm 10.3° 1025.4 hPa 4.6 m/s 7.7° 1014.1 hPa 6.3 m/s 76.5 mm
07:00 10.6° 1024.4 hPa 5.3 m/s 76.5 mm 10.8° 1025.3 hPa 5.2 m/s 8.9° 1014.5 hPa 6.6 m/s 76.5 mm
13:00 13.9° 1025.0 hPa 6.2 m/s 76.7 mm 14.1° 1025.9 hPa 6.1 m/s 12.1° 1014.8 hPa 6.9 m/s 76.7 mm
19:00 17.7° 1021.2 hPa 0.9 m/s 1.2 mm
 04:47     21:27    Daglengte: 16:40 Donderdag 27 Jun
01:00 11.6° 1020.8 hPa 0.3 m/s 0.6 mm
07:00 12.4° 1018.9 hPa 1.3 m/s 0.7 mm
13:00 18.2° 1017.8 hPa 1.9 m/s 0.7 mm
19:00 18.1° 1016.1 hPa 2.0 m/s 1.0 mm
 04:47     21:27    Daglengte: 16:40 Vrijdag 28 Jun
01:00 11.9° 1016.1 hPa 1.1 m/s 0.7 mm
07:00 12.3° 1015.1 hPa 1.9 m/s 0.8 mm
13:00 17.9° 1015.1 hPa 2.9 m/s 0.5 mm
19:00 17.8° 1014.7 hPa 2.7 m/s 0.7 mm
 04:48     21:27    Daglengte: 16:39 Zaterdag 29 Jun
01:00 11.8° 1015.7 hPa 2.0 m/s 0.3 mm
07:00 11.8° 1015.6 hPa 1.9 m/s 0.2 mm
13:00 17.8° 1015.4 hPa 2.4 m/s 0.4 mm
19:00 17.8° 1014.6 hPa 2.8 m/s 0.6 mm
 04:48     21:26    Daglengte: 16:38 Zondag 30 Jun
01:00 11.7° 1015.3 hPa 2.1 m/s 0.3 mm
07:00 11.8° 1015.1 hPa 2.3 m/s 0.2 mm
13:00 17.8° 1015.1 hPa 3.4 m/s 0.3 mm
19:00 17.5° 1014.6 hPa 2.7 m/s 0.7 mm
 04:49     21:26    Daglengte: 16:37 Maandag 01 Jul
01:00 11.3° 1015.3 hPa 1.5 m/s 0.4 mm
07:00 12.0° 1015.3 hPa 1.5 m/s 0.1 mm
13:00 18.1° 1015.3 hPa 3.0 m/s 0.5 mm
19:00 17.8° 1014.7 hPa 2.7 m/s 0.7 mm
FMI Hirlam - 7.5 km EWN WRFDA - 12 km DWD ICON - 7 km GFS - 25 km Basiskaart






























































Updatetijd (Europe/Amsterdam) Resolutie Lengte Stap
FMI Hirlam 01:15, 07:15, 13:15, 19:15 7.5 km 49h 1h
EWN WRFDA 22:15, 04:15, 10:15, 16:15 12 km 73h 1h
DWD ICON 23:45, 05:45, 11:45, 17:45 7 km 75h 1h
GFS 20:30, 02:30, 08:30, 14:30 25 km 237h 3h
30+ mm
25-30 mm
20-25 mm
15-20 mm
10-15 mm
6-10 mm
4-6 mm
2-4 mm
1-2 mm
0.5-1 mm
0.2-0.5 mm
0.1-0.2 mm
30+ mm
25-30 mm
20-25 mm
15-20 mm
10-15 mm
6-10 mm
4-6 mm
2-4 mm
1-2 mm
0.5-1 mm
0.2-0.5 mm
0.1-0.2 mm
Sneeuwval
Natte sneeuw
Hagel
Vorst
30+ mm
25-30 mm
20-25 mm
15-20 mm
10-15 mm
6-10 mm
4-6 mm
2-4 mm
1-2 mm
0.5-1 mm
0.2-0.5 mm
0.1-0.2 mm
Sneeuwval
Natte sneeuw
Hagel
Vorst
Onweer
50 mm
40 mm
30 mm
26 mm
22 mm
18 mm
14 mm
10 mm
9 mm
8 mm
7 mm
6 mm
5 mm
4.5 mm
4 mm
3.5 mm
3 mm
2.5 mm
2 mm
1.5 mm
1 mm
0.8 mm
0.6 mm
0.4 mm
0.2 mm
0.05 mm
35°
30°
25°
20°
15°
10°
-5°
-10°
-15°
-20°
-25°
-30°
-35°
33> m/s
29 m/s
25 m/s
21 m/s
17 m/s
14 m/s
11 m/s
8 m/s
5 m/s
3 m/s
0 m/s
2600 J/kg
2400 J/kg
2200 J/kg
2000 J/kg
1800 J/kg
1600 J/kg
1400 J/kg
1200 J/kg
1000 J/kg
800 J/kg
600 J/kg
400 J/kg
200 J/kg
70 dBZ
65 dBZ
60 dBZ
55 dBZ
50 dBZ
45 dBZ
40 dBZ
35 dBZ
30 dBZ
25 dBZ
20 dBZ
15 dBZ
10 dBZ
5 dBZ
-1 K
-2 K
-3 K
-4 K
-5 K
-6 K
-7 K
-8 K
-9 K
950 m²/s²
900 m²/s²
850 m²/s²
800 m²/s²
750 m²/s²
700 m²/s²
650 m²/s²
600 m²/s²
550 m²/s²
500 m²/s²
450 m²/s²
400 m²/s²
350 m²/s²
300 m²/s²
250 m²/s²
200 m²/s²
150 m²/s²
100 m²/s²
46 m/s
44 m/s
42 m/s
40 m/s
38 m/s
36 m/s
34 m/s
32 m/s
30 m/s
28 m/s
26 m/s
24 m/s
22 m/s
20 m/s
16 m/s
12 m/s
8 m/s
4 m/s
30 m/s
28 m/s
26 m/s
24 m/s
22 m/s
20 m/s
18 m/s
16 m/s
14 m/s
12 m/s
10 m/s
8 m/s
6 m/s
4 m/s
2 m/s
3.0
2.8
2.6
2.4
2.2
2.0
1.8
1.6
1.4
1.2
1.0
0.8
0.6
0.4
0.2
15
14
13
12
11
10
9
8
7
6
5
4
3
2
1
90%
80%
70%
60%
50%
40%
30%
20%
10%
42
40
38
36
34
32
30
28
26
24
22
20